HIMAWARI-9 (41836 NORAD) Tracking and Keplerian Element Data

This shows tracking and keplerian element data for the satellite.

Feedback or suggestion? Click here.




ElementValue
Catalog41836
NameHIMAWARI-9
Epoch Orbit910
Epoch Day112.4845525
Epoch Year2019
RAAN159.7192
Inclination0.0006
Eccentricity6.26E-05
Argument of Perigee245.3444
Mean Anonmoly120.3919
Mean Motion1.0027246
Decay Rate-2.91E-06
L11 41836U 16064A 19112.48455250 -.00000291 00000-0 00000+0 0 9998
L22 41836 0.0006 159.7192 0000626 245.3444 120.3919 1.00272460 9101

Live tracking and technical data element details for HIMAWARI-9 (NORAD 41836). HIMAWARI-9 can be tracked NOW for your location showing map with azimuth and elevation plus other details from your city location.

Track the satellite on the map from your city or location and see movement details for azimuth, elevation, latitude, longitude, range, height, and movement on the map or in text.







IsCatalogInMostPopularTable: catalog: 41836, numindb: 180
Update: records affected: 1



GetName: 41836 HIMAWARI-9

Hit Count: updated at: Tue, 23 Apr 2019 06:22:29 GMT